Location: Copeville
(33.0796°N, 96.4155°W)
Time: 05:01:17
(UTC+00:00)

SEEDS - Visible Passes

Search period start: 19 June 2024 00:00
Search period end: 29 June 2024 00:00
Orbit: 552 x 557 km, 97.7° (Epoch: 18 June)

Date Brightness Start Highest point End Pass type
(mag) Time Alt. Az. Time Alt. Az. Time Alt. Az.
19 Jun ? 10:05:51 10° NNE 10:09:47 58° E 10:13:43 10° S visible
20 Jun ? 10:03:01 10° NNE 10:06:56 53° E 10:10:49 10° S visible
21 Jun ? 10:00:11 10° NNE 10:04:03 48° E 10:07:53 10° S visible
22 Jun ? 09:57:19 10° NNE 10:01:09 44° E 10:04:57 10° S visible
23 Jun ? 09:54:28 10° NNE 09:58:14 40° E 10:01:58 10° S visible
24 Jun ? 09:51:35 10° NNE 09:55:18 36° E 09:58:59 10° SSE visible
25 Jun ? 09:48:43 10° NNE 09:52:21 33° E 09:55:57 10° SSE visible
26 Jun ? 09:45:50 10° NE 09:49:23 30° E 09:52:54 10° SSE visible
27 Jun ? 09:42:56 10° NE 09:46:23 28° E 09:49:49 10° SSE visible
28 Jun ? 09:40:02 10° NE 09:43:23 25° E 09:46:43 10° SSE visible
